Lexington Weather

Lexington, Massachusetts, USA

45°F
9/19/2020 8:28am 
  • Lexington Conditions: Clear
  • Temperature: 44.8°F / 7.1°CWarmer 1.8°F than last hour.
  • Dew Point: 36.3°FIncreased 1.1°Fsince last hour.
  • Relative Humidity: 72%Decreased 2.0% since last hour.
  • Wind: Wind from NNE NNE Calm, 10-min avg: 1 mph, gust: 2 mph
  • Barometer: 30.26 inRising 0.03  inHg/hr Rising Slowly
  • Visibility: 10 miles
  • Rain Today: 0.00 in
  •   
Southeast Middlesex County - Special Weather Statement
 - SEE ALL NEARBY ALERTS -

Regional Weather Roundup
for Boston / Norton, MA

        
000
ASUS41 KBOX 171304
RWRBOX

REGIONAL WEATHER ROUNDUP
NATIONAL WEATHER SERVICE BOSTON/NORTON MA
900 AM EDT THU SEP 17 2020

NOTE:  "FAIR" INDICATES FEW OR NO CLOUDS BELOW 12,000 FEET WITH NO 
SIGNIFICANT WEATHER AND/OR OBSTRUCTIONS TO VISIBILITY.

MAZALL-171400-
EASTERN MASSACHUSETTS
  
CITY           SKY/WX    TMP DP  RH WIND       PRES   REMARKS
BOSTON         PTSUNNY   65  55  70 SW14      30.02F                  
BEVERLY        SUNNY     64  56  75 SW10      30.01S                  
LAWRENCE       SUNNY     63  57  81 SW7       30.03S                  
BEDFORD        SUNNY     63  56  78 SW9       30.01S                  
BLUE HILL        N/A     61  55  81 SW14G20   30.03S                  
NORWOOD        SUNNY     65  56  72 SW6       30.04S                  
MARSHFIELD     SUNNY     68  59  73 VRB5G13   30.04S                  
PLYMOUTH       PTSUNNY   66  59  78 SW9       30.06R                  
TAUNTON        SUNNY     68  59  73 S5        30.05S                  
NEW BEDFORD    PTSUNNY   67  60  78 W5        30.06R                  
$$

MAZALL-171400-
CAPE COD AND THE ISLANDS
  
CITY           SKY/WX    TMP DP  RH WIND       PRES   REMARKS
FALMOUTH       PTSUNNY   68  61  77 W9        30.07R                  
HYANNIS        SUNNY     70  60  70 SW10      30.05S                  
CHATHAM        MOSUNNY   70  61  73 VRB3      30.08S                  
PROVINCETOWN   SUNNY     67  61  81 SW12      30.06S                  
NANTUCKET      SUNNY     69  65  86 SW6       30.08S                  
MARTHAS VNYRD  MOSUNNY   69  64  84 S9        30.07R                  
$$
 
MAZALL-171400-
CENTRAL AND WESTERN MASSACHUSETTS
  
CITY           SKY/WX    TMP DP  RH WIND       PRES   REMARKS
WORCESTER      MOSUNNY   61  54  77 SW13      30.05S                  
FITCHBURG      MOSUNNY   64  54  69 VRB3      30.03S                  
ORANGE         SUNNY     60  56  86 CALM      30.05S                  
SPRINGFIELD    PTSUNNY   60  57  90 S3        30.03F                  
WESTFIELD      MOSUNNY   57  55  93 CALM      30.04S                  
NORTH ADAMS    MOSUNNY   57  52  83 CALM      30.04S                  
PITTSFIELD     MOSUNNY   56  53  90 CALM      30.04S                  
$$
 
RIZALL-171400-
RHODE ISLAND
  
CITY           SKY/WX    TMP DP  RH WIND       PRES   REMARKS
PROVIDENCE     PTSUNNY   64  61  90 S6        30.06F                  
NEWPORT        CLOUDY    68  60  75 CALM      30.07R                  
BLOCK ISLAND   CLOUDY    69  63  81 W9        30.08R                  
SMITHFIELD     MOSUNNY   62  59  90 VRB3      30.06S                  
WESTERLY       MOSUNNY   67  58  72 CALM      30.07S                  
$$
 
CTZALL-171400-
CONNECTICUT
  
CITY           SKY/WX    TMP DP  RH WIND       PRES   REMARKS
BRADLEY INTL   CLOUDY    61  56  83 S6        30.04S                  
HARTFORD       PTSUNNY   65  57  75 S6        30.05S                  
BRIDGEPORT     PTSUNNY   68  60  75 SW6       30.06R                  
DANBURY        PTSUNNY   59  57  93 CALM      30.07S                  
GROTON         MOSUNNY   67  60  78 W5        30.06S                  
NEW HAVEN      CLOUDY    69  61  75 W6        30.06S                  
CHESTER        FAIR      66  59  77 CALM      30.07S                  
MERIDEN        PTSUNNY   62  58  86 S3        30.06S                  
WILLIMANTIC    PTSUNNY   57  54  89 CALM      30.06F FOG              
OXFORD         MOSUNNY   60  58  92 CALM      30.07S                  
$$

MEZ002-015-021-024-NHZ003-005-008-011-012-014-VTZ005-008-171400-
NORTHERN NEW ENGLAND
  
CITY           SKY/WX    TMP DP  RH WIND       PRES   REMARKS
PORTLAND ME    MOSUNNY   63  55  75 W7        29.98F                  
BANGOR ME      MOSUNNY   61  54  77 SW5       29.98S                  
CONCORD NH     MOSUNNY   59  54  83 CALM      30.01S                  
MANCHESTER NH  PTSUNNY   61  54  77 S6        30.00S                  
NASHUA NH      MOSUNNY   62  59  90 CALM      30.02S                  
PORTSMOUTH NH  PTSUNNY   62  55  75 W7        29.99S                  
JAFFREY NH     MOSUNNY   57  53  86 VRB6      30.04R                  
KEENE NH       MOSUNNY   56  54  93 CALM      30.04S                  
BURLINGTON VT  CLOUDY    58  52  80 E3        30.04R                  
MT. WASHINGTON FOG       41  41 100 W38         N/A  VSB 0   WCI  29  
$$

NYZ052-076-171400-
EASTERN NEW YORK
  
CITY           SKY/WX    TMP DP  RH WIND       PRES   REMARKS
ALBANY         PTSUNNY   55  54  96 S5        30.04R                  
NEW YORK CITY  CLOUDY    70  59  68 SW6       30.06R                  
$$
 
ANZALL-171400-
MARINE OBSERVATIONS
  
STATION/POSITION TIME  TEMP    WIND        PRES    VSBY  WAVE
                       AIR SEA DIR/SP/G                  HT/PER
                 (UTC) (F)     (DEG/KT/KT) (MB)    (MI)  (FT/S)
BOSTON BUOY      1250   64 64  220/ 14/ 16 1015.6F         2/11
BUZZARDS BAY     1200          230/  6/  7 1019.0R
NANTUCKET SOUND  1240      70  230/  8/ 10   N/A
MASS BAY-STELLWA 1204   63     250/ 14/ 17 1014.3F  1 7/8  2/ 3
ISLE OF SHOALS   NOT AVBL
S OF BLOCK IS    1226      70                N/A           5/11
$$

......................KEY.........................
  SKY/WX - SKY CONDITION/PRESENT WEATHER
  TMP    - TEMPERATURE IN FAHRENHEIT
  DWPT   - DEWPOINT IN FAHRENHEIT
  RH     - RELATIVE HUMIDITY IN PERCENT
  WIND   - DIRECTION AND SPEED IN MPH
  PRES   - MEAN SEA LEVEL PRESSURE IN INCHES OF HG
  WCI    - WIND CHILL INDEX
  VSB    - VISIBILITY IN MILES
  HX     - HEAT INDEX
  TC     - TEMPERATURE IN CELSIUS
  VRB    - VARIABLE WIND DIRECTION
  N/A    - NOT AVAILABLE
  
      

Other recent Regional Weather Roundups

Sat Sep 19, 8:04am

Sat Sep 19, 7:04am

Sat Sep 19, 6:04am

Sat Sep 19, 5:04am

Sat Sep 19, 4:04am

Sat Sep 19, 3:04am

Sat Sep 19, 2:04am

Sat Sep 19, 1:04am

Sat Sep 19, 12:04am

Fri Sep 18, 11:05pm

Fri Sep 18, 10:04pm

Fri Sep 18, 9:04pm

Fri Sep 18, 8:04pm

Fri Sep 18, 7:04pm

Fri Sep 18, 6:04pm

Fri Sep 18, 5:05pm

Fri Sep 18, 4:04pm

Fri Sep 18, 3:05pm

Fri Sep 18, 2:04pm

Fri Sep 18, 1:04pm

Fri Sep 18, 12:04pm

Fri Sep 18, 11:05am

Fri Sep 18, 10:05am

Fri Sep 18, 9:04am

Fri Sep 18, 8:04am

Fri Sep 18, 7:04am

Fri Sep 18, 6:04am

Fri Sep 18, 5:04am

Fri Sep 18, 4:04am

Fri Sep 18, 3:04am

Fri Sep 18, 2:04am

Fri Sep 18, 1:04am

Fri Sep 18, 12:04am

Thu Sep 17, 11:05pm

Thu Sep 17, 10:04pm

Thu Sep 17, 9:04pm

Thu Sep 17, 8:05pm

Thu Sep 17, 7:04pm

Thu Sep 17, 6:04pm

Thu Sep 17, 5:04pm

Thu Sep 17, 4:04pm

Thu Sep 17, 3:05pm

Thu Sep 17, 2:04pm

Thu Sep 17, 1:04pm

Thu Sep 17, 12:04pm

Thu Sep 17, 11:04am

Thu Sep 17, 10:04am

Thu Sep 17, 8:04am

Thu Sep 17, 7:04am

Thu Sep 17, 6:04am

Thu Sep 17, 5:04am

Thu Sep 17, 4:04am

Thu Sep 17, 3:04am

Thu Sep 17, 2:05am

Thu Sep 17, 1:05am

Thu Sep 17, 12:04am

Wed Sep 16, 11:04pm

Wed Sep 16, 10:04pm

Wed Sep 16, 9:04pm

Wed Sep 16, 8:05pm

Wed Sep 16, 7:04pm

Wed Sep 16, 6:04pm

Wed Sep 16, 5:04pm

Wed Sep 16, 4:04pm

Wed Sep 16, 3:04pm

Wed Sep 16, 2:04pm

Wed Sep 16, 1:04pm

Wed Sep 16, 12:04pm

Wed Sep 16, 11:04am

Wed Sep 16, 10:04am

Wed Sep 16, 9:04am

Wed Sep 16, 8:04am

Wed Sep 16, 7:04am

Wed Sep 16, 6:04am

Wed Sep 16, 5:04am

Wed Sep 16, 4:04am

Wed Sep 16, 3:04am

Wed Sep 16, 2:04am

Wed Sep 16, 1:04am

Wed Sep 16, 12:05am

Tue Sep 15, 11:04pm

Tue Sep 15, 10:04pm

Tue Sep 15, 9:04pm

Tue Sep 15, 8:04pm

Tue Sep 15, 7:04pm

Tue Sep 15, 6:04pm

Tue Sep 15, 5:04pm

Tue Sep 15, 4:05pm

Tue Sep 15, 3:04pm

Tue Sep 15, 2:04pm

Tue Sep 15, 1:04pm

Tue Sep 15, 12:04pm

Tue Sep 15, 11:04am

Tue Sep 15, 10:04am

Tue Sep 15, 9:04am

Tue Sep 15, 8:04am

Tue Sep 15, 7:04am

Tue Sep 15, 6:04am

Tue Sep 15, 5:04am

Tue Sep 15, 4:04am

Tue Sep 15, 3:04am

Tue Sep 15, 2:04am

Tue Sep 15, 1:04am

Tue Sep 15, 12:05am

Mon Sep 14, 11:04pm

Mon Sep 14, 10:04pm

Mon Sep 14, 9:04pm

Mon Sep 14, 8:04pm

Mon Sep 14, 7:04pm

Mon Sep 14, 6:04pm

Mon Sep 14, 5:04pm

Mon Sep 14, 4:05pm

Mon Sep 14, 3:04pm

Mon Sep 14, 2:05pm

Mon Sep 14, 1:04pm

Mon Sep 14, 12:04pm

Mon Sep 14, 11:04am

Mon Sep 14, 10:05am

Mon Sep 14, 9:04am

Mon Sep 14, 8:04am

Mon Sep 14, 7:04am

Mon Sep 14, 6:04am

Mon Sep 14, 5:04am

Mon Sep 14, 4:04am

Mon Sep 14, 3:04am

Mon Sep 14, 2:04am

Mon Sep 14, 1:04am

Mon Sep 14, 12:04am

Sun Sep 13, 11:05pm

Sun Sep 13, 10:04pm

Sun Sep 13, 9:04pm

Sun Sep 13, 8:04pm

Sun Sep 13, 7:05pm

Sun Sep 13, 6:05pm

Sun Sep 13, 5:05pm

Sun Sep 13, 4:04pm

Sun Sep 13, 3:04pm

Sun Sep 13, 2:04pm

Sun Sep 13, 1:04pm

Sun Sep 13, 12:04pm

Sun Sep 13, 11:05am

Sun Sep 13, 10:04am

Sun Sep 13, 9:04am

Sun Sep 13, 8:04am

Sun Sep 13, 7:04am

Sun Sep 13, 6:04am

Sun Sep 13, 5:04am

Sun Sep 13, 4:04am

Sun Sep 13, 3:04am

Sun Sep 13, 2:04am

Sun Sep 13, 1:04am

Sun Sep 13, 12:04am

Sat Sep 12, 11:04pm

Sat Sep 12, 10:04pm

Sat Sep 12, 9:04pm

Sat Sep 12, 8:04pm

Sat Sep 12, 7:05pm

Sat Sep 12, 6:04pm

Sat Sep 12, 5:04pm

Sat Sep 12, 4:05pm

Sat Sep 12, 3:04pm

Sat Sep 12, 2:04pm

Sat Sep 12, 1:05pm

Sat Sep 12, 12:04pm

Sat Sep 12, 11:04am

Sat Sep 12, 10:04am

Sat Sep 12, 9:04am

Meta data:

ID: 8a2b806a-6be2-4808-9705-63a67fe229b5
Link: https://api.weather.gov/products/8a2b806a-6be2-4808-9705-63a67fe229b5